sat.trackr.live / text

‹ back to catalog

STARLINK-4474

NORAD 53547 · 2022-101W

PAYLOAD ACTIVE UNKNOWN

§ Identity

Operator
Country
US
Launch date
2022-08-19
Launch site
AFETR
Launch vehicle
Mass (kg)
RCS (m²)

Purposes: comms

External: N2YO · Heavens-Above · Gunter

§ Orbital elements

Epoch: 2026-05-25T04:47:10.874688Z

Period
95.44 min
Inclination
53.2136°
Eccentricity
0.0001454
Mean motion
15.08847354 rev/d
Perigee alt
538.7 km
Apogee alt
540.7 km
Semi-major
6,917.9 km
B*
3.1823e-5
RAAN
80.6506°
Arg perigee
76.0833°
Mean anomaly
284.0321°
Rev number
20,852

§ Raw data

STARLINK-44741 53547U 22101W   26145.19943142  .00000219  00000+0  31823-4 0  99932 53547  53.2136  80.6506 0001454  76.0833 284.0321 15.08847354208524

JSON: /api/v1/satellites/53547 · /tle

For live sub-satellite position, see the globe view (requires WebGL).

§ Visibility from observer

Set your observer location to see the next 7 days of passes ≥ 10°. The values pass through the URL so the page stays shareable.

No JS? Fill the form by hand. The geolocation button needs JavaScript.